Miscellaneous Local Product
Issued by NWS Hastings, NE

Home | Current Version | Previous Version | Graphics & Text | Print | Product List | Glossary On
Versions: 1 2 3 4 5 6 7 8 9 10 11 12 13 14 15 16 17 18 19 20 21 22 23 24 25 26 27 28 29 30 31 32 33 34 35 36 37 38 39 40 41 42 43 44 45 46 47 48 49 50
000
AXUS43 KGID 270302
MISGRI

GID CWA HOURLY WEATHER ROUNDUP
NATIONAL WEATHER SERVICE HASTINGS NE
1000 PM CDT THU MAY 26 2016

NOTE: "FAIR" INDICATES FEW OR NO CLOUDS BELOW 12,000 FEET WITH NO
SIGNIFICANT WEATHER AND/OR OBSTRUCTIONS TO VISIBILITY.

...SOUTH CENTRAL NEBRASKA...

CITY           SKY/WX    TMP DP  RH WIND       PRES   REMARKS
GRAND ISLAND   CLOUDY    61  57  87 SE12      29.79R
HASTINGS       TSTM      60  57  89 SE20G29   29.84R FOG
KEARNEY        CLOUDY    61  55  82 SE26G32   29.77R
ORD            CLOUDY    63  57  81 E8        29.73F
YORK           CLOUDY    61  57  88 SE22G29   29.75R
AURORA         CLOUDY    61  58  92 E12       29.74F
LEXINGTON      CLOUDY    64  57  78 E18       29.72R
HOLDREGE       TSTM      60  56  87 E16       29.74R
HEBRON         CLOUDY    62  57  85 E18G30    29.78R THUNDER

...NEBRASKA PANHANDLE...

CITY           SKY/WX    TMP DP  RH WIND       PRES   REMARKS
CHADRON        CLEAR     52  45  77 W5        29.82R
ALLIANCE       CLOUDY    56  44  64 W7        29.83R
SCOTTSBLUFF    CLOUDY    56  45  66 NW6       29.85R
SIDNEY         CLOUDY    56  44  64 NW13      29.83S

...WESTERN AND NORTH CENTRAL NEBRASKA...

CITY           SKY/WX    TMP DP  RH WIND       PRES   REMARKS
VALENTINE      CLOUDY    62  52  69 N18G29    29.81R
AINSWORTH      CLOUDY    66  58  75 E13       29.78S
ONEILL         CLOUDY    69  57  65 E8        29.78R
BROKEN BOW     CLOUDY    66  56  70 E8        29.75S
IMPERIAL       RAIN      54  51  90 E9G23     29.81R FOG
NORTH PLATTE   TSTM      58  54  86 S8        29.80R
MCCOOK         TSTM      55  51  86 W20G35    29.77R FOG

...EASTERN NEBRASKA...

CITY           SKY/WX    TMP DP  RH WIND       PRES   REMARKS
NORFOLK        CLOUDY    62  58  86 E9        29.77R
SO SIOUX CITY  CLOUDY    67  55  65 E10G22    29.75F
TEKAMAH        CLOUDY    64  54  69 E30G45    29.66F
COLUMBUS       CLOUDY    64  52  63 S7        29.78R
ALBION         CLOUDY    59  55  87 CALM      29.77R
OMAHA EPPLEY   CLOUDY    64  56  75 SE24G33   29.76F
OFFUTT AFB     CLOUDY    63  57  79 E20G29    29.77F
MILLARD        CLOUDY    62  58  87 SE16      29.75F
LINCOLN        CLOUDY    63  57  81 SE21G32   29.79R
NEBRASKA CITY  LGT RAIN  62  62 100 E31G38    29.81F
BEATRICE       CLOUDY    63  59  87 E16G28    29.80R
FALLS CITY     RAIN      63  63 100 E18G31    29.87F

...NORTHERN KANSAS...

CITY           SKY/WX    TMP DP  RH WIND       PRES   REMARKS
GOODLAND       NOT AVBL
HILL CITY      TSTM      58  54  86 W20G41    29.79R FOG
NORTON         CLOUDY    64  54  68 NW7       29.70R
PHILLIPSBURG   MOCLDY    64  55  72 E26G33    29.65R
SMITH CENTER   CLOUDY    61  55  82 E22G33    29.70R
BELOIT         CLOUDY    63  59  88 NE21G31   29.76F
HAYS           CLOUDY    36 N/A N/A E14       29.62F WCI  27
RUSSELL        CLOUDY    62  55  77 NE13      29.65F
CONCORDIA      TSTM      61  59  93 W12       29.83R FOG
SALINA         RAIN      60  57  89 NW22G31   29.81R FOG
TOPEKA         RAIN      63  61  93 E15       29.87R



USA.gov is the U.S. government's official web portal to all federal, state and local government web resources and services.